Tracking 19846 objects as of 20-Sep-2019
HD Live streaming from Space Station
objects crossing your sky now

FENGYUN 1C DEB

Track FENGYUN 1C DEB now!
10-day predictions


NORAD ID: 36735
Int'l Code: 1999-025EBH
Perigee: 707.6 km
Apogee: 850.7 km
Inclination: 99.1 °
Period: 100.3 minutes
Semi major axis: 7150 km
RCS: 0.0108 m2 (small)
Launch date: May 10, 1999
Source: People's Republic of China (PRC)
Launch site: Taiyaun Space Center, China (TSC)

Note: This is SATELLITE DEBRIS
aabbcc
Your satellite tracking list
Your tracking list is empty




NASA's NSSDC Master Catalog

Two Line Element Set (TLE):
1 36735U 99025EBH 19257.55731813  .00000768  00000-0  26654-3 0  9993
2 36735  99.0990 161.6609 0100037  32.1054 328.6170 14.35913338616456
Source of the keplerian elements: AFSPC